FW5282 Weather Reports


Display with metric or nautical units.
time (UTC)temp
F
wind
direction
speed
MPH
gust
MPH
rain 1hr
in
rain 24hr
in
rain mn
in
humidity
%
barometer
mb
20260504012103 57 225 2.0 5.0 0.00 1.22 0.00 95 1010.6
20260504011601 57 234 2.0 4.0 0.00 1.22 0.00 95 1010.6
20260504011035 57 199 1.0 4.0 0.00 1.22 0.00 95 1010.6
20260504010547 57 205 2.0 4.0 0.00 1.22 0.00 95 1010.6
20260504010036 57 215 2.0 4.0 0.00 1.22 0.00 95 1010.6
20260504005608 57 209 2.0 4.0 0.00 1.22 0.00 95 1010.7
20260504005031 57 208 2.0 4.0 0.00 1.22 0.00 95 1010.7
20260504004534 57 203 1.0 4.0 0.00 1.22 0.00 95 1010.8
20260504004033 57 192 2.0 4.0 0.00 1.22 0.00 95 1010.8
20260504003538 57 220 2.0 4.0 0.00 1.22 0.00 95 1010.9
20260504003102 57 209 1.0 4.0 0.00 1.22 0.00 95 1010.8
20260504002530 57 214 1.0 4.0 0.00 1.22 0.00 95 1010.9
20260504002056 57 205 1.0 4.0 0.00 1.22 0.00 95 1010.9
20260504001537 57 217 1.0 4.0 0.00 1.22 0.00 95 1010.9
20260504001037 57 191 1.0 4.0 0.00 1.22 0.00 95 1010.8
20260504000536 57 206 1.0 4.0 0.00 1.22 0.00 95 1010.7
20260504000029 57 193 2.0 6.0 0.00 1.22 0.24 95 1010.7
20260503235530 57 223 2.0 6.0 0.00 1.22 0.24 95 1010.8
20260503235029 57 175 1.0 3.0 0.00 1.22 0.24 96 1010.9
20260503234533 57 211 2.0 3.0 0.00 1.22 0.24 96 1010.9
20260503234038 57 213 2.0 3.0 0.00 1.22 0.24 96 1010.9
20260503233606 57 194 1.0 4.0 0.00 1.22 0.24 96 1011.0
20260503233044 57 191 1.0 4.0 0.00 1.22 0.24 96 1010.9
20260503232534 57 197 1.0 3.0 0.00 1.22 0.24 96 1011.0
20260503232039 57 173 1.0 3.0 0.00 1.22 0.24 96 1011.1
20260503231555 57 178 1.0 3.0 0.00 1.22 0.24 96 1011.1
20260503231029 57 188 1.0 3.0 0.00 1.22 0.24 96 1011.2
20260503230539 57 208 1.0 2.0 0.00 1.22 0.24 95 1011.2
20260503230029 57 212 1.0 2.0 0.00 1.22 0.24 95 1011.1
20260503225535 57 223 1.0 3.0 0.00 1.22 0.24 95 1011.0
20260503225032 57 223 1.0 3.0 0.00 1.22 0.24 95 1011.0
20260503224544 57 221 1.0 2.0 0.00 1.22 0.24 95 1010.9
20260503224045 56 197 1.0 2.0 0.00 1.22 0.24 95 1010.9
20260503223531 56 143 0.0 1.0 0.00 1.22 0.24 95 1010.8
20260503223035 56 143 0.0 1.0 0.00 1.22 0.24 95 1010.8
20260503222531 57 152 0.0 1.0 0.00 1.22 0.24 95 1010.7
20260503222034 57 152 0.0 2.0 0.00 1.22 0.24 95 1010.8
20260503221543 57 152 0.0 2.0 0.00 1.22 0.24 95 1010.8
20260503221045 57 138 1.0 3.0 0.00 1.22 0.24 95 1010.7
20260503220529 57 172 2.0 3.0 0.00 1.22 0.24 95 1010.8
20260503220045 57 188 0.0 2.0 0.00 1.22 0.24 95 1010.9
20260503215529 57 199 0.0 2.0 0.00 1.22 0.24 95 1011.0
20260503215035 57 219 0.0 2.0 0.00 1.22 0.24 95 1010.9
20260503214537 58 188 0.0 1.0 0.00 1.22 0.24 95 1010.9
20260503214102 58 198 0.0 1.0 0.00 1.22 0.24 95 1010.8
20260503213546 58 198 0.0 5.0 0.00 1.22 0.24 95 1010.8
20260503213052 58 154 2.0 5.0 0.00 1.22 0.24 95 1010.7
20260503212537 58 179 0.0 2.0 0.00 1.22 0.24 95 1010.7
20260503212040 58 182 1.0 2.0 0.00 1.22 0.24 95 1010.8
20260503211544 58 189 1.0 3.0 0.00 1.22 0.24 95 1010.7
20260503211046 58 200 1.0 3.0 0.00 1.22 0.24 95 1010.8
20260503210538 58 196 1.0 3.0 0.00 1.22 0.24 95 1010.9
20260503210032 58 215 2.0 3.0 0.00 1.22 0.24 95 1010.9
20260503205541 58 227 1.0 4.0 0.00 1.22 0.24 95 1010.9
20260503205037 58 207 1.0 5.0 0.00 1.22 0.24 95 1011.0
20260503204543 58 160 2.0 4.0 0.00 1.22 0.24 95 1010.9
20260503204041 58 180 1.0 4.0 0.00 1.22 0.24 95 1010.9
20260503203537 58 198 1.0 5.0 0.00 1.22 0.24 95 1010.9
20260503203032 58 188 1.0 5.0 0.00 1.22 0.24 95 1010.8
20260503202606 58 140 2.0 4.0 0.00 1.22 0.24 95 1010.7
20260503202105 58 211 1.0 3.0 0.00 1.22 0.24 95 1010.7
20260503201535 59 173 1.0 3.0 0.00 1.22 0.24 95 1010.6
20260503201032 59 190 1.0 2.0 0.00 1.22 0.24 95 1010.5
20260503200541 59 182 0.0 5.0 0.00 1.22 0.24 95 1010.5
20260503200040 59 199 1.0 5.0 0.00 1.22 0.24 95 1010.4
20260503195542 59 154 2.0 6.0 0.00 1.22 0.24 95 1010.3
20260503195044 59 154 2.0 6.0 0.00 1.22 0.24 95 1010.3
20260503194533 59 173 1.0 3.0 0.00 1.22 0.24 94 1010.4
20260503194040 59 166 1.0 5.0 0.00 1.22 0.24 94 1010.3
20260503193540 59 174 1.0 6.0 0.00 1.22 0.24 94 1010.3
20260503193045 59 162 2.0 7.0 0.00 1.22 0.24 95 1010.3
20260503192550 59 146 4.0 7.0 0.00 1.22 0.24 94 1010.2
20260503192033 59 148 3.0 6.0 0.00 1.22 0.24 94 1010.1
20260503191534 59 171 2.0 6.0 0.00 1.22 0.24 94 1010.2
20260503191039 59 153 2.0 5.0 0.00 1.22 0.24 94 1010.2
20260503190605 59 147 2.0 5.0 0.00 1.22 0.24 93 1010.2
20260503190040 59 133 3.0 7.0 0.00 1.22 0.24 93 1010.1
20260503185542 59 148 4.0 7.0 0.00 1.22 0.24 93 1010.1
20260503185137 59 147 5.0 7.0 0.00 1.22 0.24 93 1009.9
20260503184539 60 128 3.0 7.0 0.00 1.22 0.24 93 1010.0
20260503184108 60 143 4.0 7.0 0.00 1.22 0.24 92 1009.9
20260503183530 60 129 5.0 7.0 0.00 1.22 0.24 92 1009.9
20260503183049 60 131 4.0 8.0 0.00 1.22 0.24 92 1009.9
20260503182555 60 152 4.0 8.0 0.00 1.22 0.24 92 1009.8
20260503182039 60 129 5.0 7.0 0.00 1.22 0.24 92 1009.8
20260503181526 61 140 3.0 7.0 0.00 1.22 0.24 92 1009.9
20260503181032 61 145 4.0 7.0 0.00 1.22 0.24 91 1009.9
20260503180559 61 129 4.0 6.0 0.00 1.22 0.24 91 1009.9
20260503180040 61 142 2.0 7.0 0.00 1.22 0.24 91 1009.8
20260503175529 61 107 4.0 7.0 0.00 1.22 0.24 91 1009.8
20260503175028 61 124 3.0 6.0 0.00 1.22 0.24 90 1009.9
20260503174536 61 172 2.0 5.0 0.00 1.22 0.24 90 1009.9
20260503174038 61 161 2.0 5.0 0.00 1.22 0.24 90 1009.8
20260503173553 62 122 1.0 4.0 0.00 1.22 0.24 89 1009.7
20260503173034 62 122 3.0 4.0 0.00 1.22 0.24 89 1009.6
20260503172542 62 144 3.0 4.0 0.00 1.22 0.24 88 1009.6
20260503172038 62 158 2.0 6.0 0.00 1.22 0.24 87 1009.7
20260503171547 63 159 2.0 6.0 0.00 1.22 0.24 87 1009.5
20260503170550 63 154 1.0 6.0 0.00 1.22 0.24 88 1009.5
20260503150534 59 307 3.0 9.0 0.47 1.18 0.24 91 1009.7
20260503131054 69 209 4.0 11.0 0.00 0.71 0.14 71 1010.4
20260503130537 70 204 5.0 8.0 0.00 0.71 0.14 70 1010.6
20260503110555 63 210 6.0 10.0 0.00 0.71 0.14 88 1011.3
20260503081542 58 191 3.0 7.0 0.00 0.71 0.14 93 1011.4
20260503081045 58 180 3.0 7.0 0.00 0.71 0.14 93 1011.4
20260503080540 58 163 4.0 9.0 0.00 0.71 0.14 93 1011.4
20260503072557 57 158 4.0 10.0 0.04 0.71 0.14 96 1011.4
20260503072030 57 191 2.0 8.0 0.04 0.71 0.14 96 1011.4
20260503071541 57 157 4.0 8.0 0.04 0.71 0.14 96 1011.5
20260503071034 57 166 4.0 7.0 0.04 0.71 0.14 96 1011.4
20260503070605 57 153 3.0 6.0 0.04 0.71 0.14 96 1011.4
20260503055042 57 167 1.0 3.0 0.24 0.63 0.13 96 1011.1
20260503054542 57 201 0.0 3.0 0.24 0.63 0.13 96 1011.1
20260503054105 57 186 1.0 4.0 0.28 0.63 0.13 96 1011.1
20260503053533 57 176 1.0 4.0 0.28 0.59 0.12 96 1011.1
20260503053037 57 168 0.0 3.0 0.24 0.55 0.11 96 1011.2
20260503052544 57 167 1.0 4.0 0.28 0.55 0.11 95 1011.2
20260503052044 57 194 1.0 4.0 0.28 0.51 0.10 95 1011.1
20260503051530 57 184 1.0 3.0 0.28 0.51 0.10 95 1011.0
20260503051052 57 193 2.0 3.0 0.24 0.47 0.09 95 1011.0
20260503050540 57 169 1.0 3.0 0.31 0.47 0.09 95 1011.0
20260503050034 57 180 0.0 3.0 0.28 0.43 0.09 95 1011.0
20260503045547 57 208 1.0 4.0 0.31 0.43 0.09 95 1011.0
20260503045048 57 213 1.0 4.0 0.31 0.39 0.08 95 1011.1
20260503044538 57 217 2.0 3.0 0.31 0.39 0.08 95 1011.1
20260503044038 57 190 1.0 3.0 0.28 0.35 0.07 95 1011.1
20260503043543 57 177 1.0 3.0 0.28 0.31 0.06 94 1011.1
20260503043041 57 191 1.0 3.0 0.31 0.31 0.06 95 1011.1
20260503042535 57 194 1.0 4.0 0.28 0.28 0.06 94 1011.1
20260503042038 57 188 1.0 4.0 0.24 0.24 0.05 94 1011.1
20260503041539 57 194 1.0 4.0 0.24 0.24 0.05 94 1011.1
20260503041053 57 192 1.0 3.0 0.24 0.24 0.05 93 1011.2
20260503040534 57 203 1.0 2.0 0.16 0.16 0.03 93 1011.2
20260503040030 57 207 1.0 3.0 0.16 0.16 0.03 93 1011.1
20260503035535 58 213 1.0 3.0 0.12 0.12 0.02 92 1011.2
20260503035043 58 218 2.0 3.0 0.08 0.08 0.02 92 1011.2
20260503034559 58 198 1.0 3.0 0.08 0.08 0.02 92 1011.2
20260503034047 58 221 1.0 3.0 0.04 0.04 0.02 91 1011.1
20260503033531 58 226 1.0 3.0 0.04 0.04 0.01 91 1011.1
20260503033057 58 221 1.0 3.0 0.00 0.00 0.00 90 1011.2
20260503032532 58 228 1.0 3.0 0.00 0.00 0.00 89 1011.2
20260503032051 59 267 1.0 2.0 0.00 0.00 0.00 89 1011.2
20260503031543 59 268 1.0 2.0 0.00 0.00 0.00 88 1011.1
20260503031053 59 279 1.0 2.0 0.00 0.00 0.00 88 1011.1
20260503030542 59 230 0.0 2.0 0.00 0.00 0.00 88 1011.0
20260503030035 59 284 1.0 3.0 0.00 0.00 0.00 87 1011.1
20260503025547 59 277 1.0 3.0 0.00 0.00 0.00 86 1011.0
20260503025034 59 252 0.0 2.0 0.00 0.00 0.00 87 1011.0
20260503024528 59 236 0.0 1.0 0.00 0.00 0.00 87 1011.0
20260503024051 59 287 0.0 2.0 0.00 0.00 0.00 87 1011.0
20260503023542 58 246 0.0 2.0 0.00 0.00 0.00 87 1011.0
20260503023041 58 244 0.0 1.0 0.00 0.00 0.00 88 1011.0
20260503022536 58 285 0.0 1.0 0.00 0.00 0.00 88 1011.1
20260503022035 58 263 0.0 1.0 0.00 0.00 0.00 88 1011.0
20260503021538 58 240 0.0 1.0 0.00 0.00 0.00 89 1011.1
20260503021034 57 275 0.0 1.0 0.00 0.00 0.00 89 1011.1
20260503020603 57 274 0.0 1.0 0.00 0.00 0.00 89 1011.1
20260503020034 57 199 0.0 0.0 0.00 0.00 0.00 88 1011.2
20260503015540 57 199 0.0 0.0 0.00 0.00 0.00 88 1011.3
20260503015047 57 199 0.0 0.0 0.00 0.00 0.00 87 1011.2
20260503014556 57 199 0.0 0.0 0.00 0.00 0.00 87 1011.3
20260503014035 57 199 0.0 0.0 0.00 0.00 0.00 86 1011.3
20260503013537 57 199 0.0 0.0 0.00 0.00 0.00 86 1011.3
20260503013039 57 199 0.0 0.0 0.00 0.00 0.00 86 1011.3
20260503012533 57 199 0.0 0.0 0.00 0.00 0.00 86 1011.4